User: anonymous   Login
Location: Clinton NY
(43.0598°N, 75.3602°W)
Time: 09:45:20
(UTC-04:00)
Language:

Iridium 11 - Orbit

View from above orbital plane
View from above orbital plane
View from above satellite
View from above satellite

Ground track
Ground track

The orbit data is extracted from the following two-line orbital elements,

1 25578U 98074B   15145.27306223  .00000200  00000-0  64237-4 0  9994
2 25578 086.3991 210.7283 0002195 098.5619 326.5356 14.34216532869344
Epoch (UTC): 25 May 2015 06:33:12
Eccentricity: 0.0002195
inclination: 86.3991°
perigee height: 776 km
apogee height: 779 km
right ascension of ascending node: 210.7283°
argument of perigee: 98.5619°
revolutions per day: 14.34216532
mean anomaly at epoch: 326.5356°
orbit number at epoch: 86934

The dashed part of the orbit path shows where the satellite is in the earth's shadow,  

DLR